[[{"header":{"parameterUnit":"m.s-1","parameterCategory":1,"la1":30.2991,"la2":30.254,"lo1":-89.0895,"lo2":-89.0444,"dy":0.0017,"dx":0.0017,"nx":28,"ny":28,"refTime":"2024-06-08T21:00:00:Z","depth":0,"parameterNumber":2,"parameterNumberName":"U-component_of_WINDS"},"data":[0,0,0,0,0,0,0,0,0,0,0,0,0,0,0,0,0,0,0,0,0,0,0,0,0,0,0,0,0,0,0,0,0,0,0,0,0,0,0,0,0,0,0,0,0,0,0,0,0,0,0,0,0,0,0,0,0,0,0.2248,0.225,0,0.2348,0.2349,0.235,0.2396,0.2396,0.2396,0.2396,0.2498,0.2501,0.2503,0,0,0,0,0,0,0,0,0,0,0,0,0,0.2098,0.21,0.2248,0.225,0.2251,0.2348,0.2349,0.235,0.2396,0.2396,0.2396,0.2396,0.2497,0.25,0.2504,0,0,0,0,0,0,0,0,0,0,0,0,0,0.2177,0.2101,0.2248,0.2285,0.229,0.2347,0.2349,0.2351,0.2396,0.2396,0.2396,0.2396,0.2496,0.25,0.2504,0.2532,0,0,0.2517,0.2519,0,0,0,0,0,0,0,0,0.2172,0.2182,0.2279,0.2283,0.2288,0.2359,0.2333,0.2412,0.2396,0.2356,0.2396,0.2396,0.2452,0.246,0.2479,0.2537,0.2541,0.2517,0.252,0.2522,0.2523,0,0,0,0,0,0,0,0.2166,0.2178,0.2288,0.228,0.2286,0.2297,0.2308,0.2348,0.2403,0.2359,0.2363,0.2374,0.2454,0.2474,0.2481,0.2543,0.2517,0.2521,0.2523,0.2525,0.2629,0.2629,0,0,0,0,0,0,0.2155,0.2173,0.2285,0.2291,0.2228,0.23,0.2312,0.2337,0.2403,0.2413,0.2374,0.2376,0.2467,0.2476,0.2485,0.2522,0.2522,0.2525,0.2528,0.2629,0.2629,0.2629,0,0,0,0,0,0,0.2152,0.2165,0.2281,0.2233,0.2249,0.2302,0.233,0.2339,0.2359,0.2414,0.2424,0.2384,0.2468,0.2479,0.252,0.2527,0.2527,0.2531,0.2628,0.2629,0.2629,0.2597,0,0,0,0,0,0,0.2147,0.2163,0.2175,0.2233,0.2251,0.2314,0.233,0.2341,0.2366,0.2369,0.2427,0.2436,0.2468,0.2514,0.2524,0.2532,0.2534,0.2628,0.2629,0.2629,0.2598,0.2596,0.2595,0,0,0,0,0,0.2142,0.2162,0.2175,0.2188,0.2266,0.2314,0.2325,0.2361,0.2366,0.2378,0.2413,0.2434,0.2524,0.2517,0.253,0.2539,0.2628,0.2628,0.2629,0.2598,0.2597,0.2595,0,0,0,0,0,0,0.2103,0.217,0.2185,0.2225,0.2264,0.2322,0.2338,0.2358,0.2396,0.2398,0.2442,0.2455,0.2492,0.252,0.2511,0.257,0.2578,0.2581,0.255,0.2549,0.2548,0.254,0.2538,0,0,0,0,0,0.2099,0.2132,0.2189,0.2219,0.2237,0.2284,0.2306,0.2331,0.2373,0.2389,0.2428,0.2468,0.2505,0.2528,0.2566,0.2602,0.2615,0.2614,0.2613,0.2611,0.2614,0.2635,0.2635,0.2631,0.2631,0.2631,0,0,0.2091,0.2132,0.2151,0.2212,0.2245,0.2278,0.2297,0.2332,0.2357,0.2395,0.2436,0.2465,0.2512,0.2551,0.2569,0.2575,0.2618,0.2612,0.2611,0.2614,0.2635,0.2636,0.2636,0.2632,0.2631,0.2631,0,0,0.2095,0.2129,0.2157,0.2189,0.2238,0.2269,0.2276,0.2331,0.2352,0.2393,0.2422,0.2452,0.2516,0.2548,0.2573,0.2586,0.2607,0.2597,0.259,0.261,0.261,0.2611,0.2616,0.2617,0.2599,0.2599,0.2599,0,0.2079,0.213,0.2169,0.2202,0.2228,0.2263,0.2291,0.2321,0.2379,0.2396,0.2401,0.2481,0.2515,0.2562,0.2565,0.2584,0.2592,0.2591,0.2607,0.2608,0.2609,0.2614,0.2616,0.2598,0.2598,0.2598,0.2598,0,0.2109,0.2144,0.216,0.2216,0.2244,0.2274,0.2317,0.234,0.2362,0.2393,0.2434,0.2476,0.2522,0.2535,0.2557,0.2584,0.2586,0.2599,0.2608,0.2607,0.2613,0.2615,0.2596,0.2596,0.2597,0.2597,0,0,0.2091,0.2167,0.2172,0.2198,0.2254,0.2282,0.2313,0.2358,0.2378,0.2416,0.2444,0.2496,0.2508,0.2536,0.2562,0.2579,0.2587,0.2589,0.2591,0.2587,0.2619,0.261,0.2611,0.26,0.2601,0.2601,0.2615,0,0.2102,0.2161,0.2196,0.224,0.2273,0.2306,0.2334,0.2371,0.24,0.2431,0.2463,0.2499,0.2512,0.2529,0.2547,0.2582,0.2594,0.2581,0.2627,0.2628,0.2614,0.2615,0.2605,0.2616,0.2618,0.2618,0.2618,0,0.2123,0.2161,0.2209,0.2261,0.2276,0.23,0.2343,0.2373,0.2416,0.2436,0.2466,0.2492,0.2526,0.2532,0.258,0.2571,0.2591,0.2611,0.2612,0.2618,0.2623,0.2621,0.2621,0.2622,0.2622,0.2622,0.2622,0,0.2106,0.2169,0.2205,0.2226,0.2287,0.2303,0.233,0.2372,0.2397,0.2435,0.2451,0.2492,0.2515,0.2547,0.2583,0.2583,0.2627,0.2636,0.2645,0.2644,0.2653,0.2652,0.2656,0.2665,0.2665,0.2665,0.2665,0,0.2115,0.2143,0.2198,0.2221,0.2252,0.2292,0.2322,0.2351,0.2388,0.2417,0.2448,0.2474,0.252,0.2552,0.258,0.2616,0.2626,0.2642,0.265,0.264,0.2638,0.2654,0.2655,0.2666,0.2665,0.2665,0.2665,0,0.2101,0.214,0.2181,0.2236,0.225,0.2271,0.2318,0.234,0.237,0.2406,0.2416,0.2464,0.2502,0.2541,0.2594,0.2613,0.2647,0.2657,0.2633,0.2637,0.2644,0.2643,0.2659,0.2663,0.2669,0.2669,0.2669,0,0.2105,0.2127,0.2183,0.2204,0.223,0.2264,0.2289,0.2328,0.2353,0.2402,0.2419,0.246,0.2495,0.2555,0.2594,0.2634,0.2645,0.2648,0.2652,0.2641,0.2646,0.2644,0.2646,0.2647,0.2647,0.2647,0.2646,0,0.2107,0.2124,0.2159,0.22,0.2229,0.2263,0.2299,0.2314,0.2361,0.2387,0.2426,0.2453,0.2506,0.2547,0.2591,0.2618,0.264,0.2645,0.2649,0.264,0.2625,0.2633,0.263,0.2645,0.2645,0.2645,0.2645,0.2645,0.2102,0.2123,0.2166,0.2203,0.2234,0.2266,0.229,0.2323,0.2356,0.2403,0.2424,0.2463,0.2505,0.2567,0.2593,0.2625,0.2631,0.2637,0.2639,0.264,0.2637,0.2619,0.2633,0.2633,0.2634,0.2634,0.2634,0,0.2106,0.2134,0.2169,0.2217,0.2246,0.2264,0.2304,0.2327,0.2362,0.2398,0.2432,0.2477,0.2516,0.2557,0.2599,0.2616,0.2627,0.2626,0.2625,0.2631,0.263,0.2622,0.2616,0.2616,0.2616,0.2616,0.2616,0.2616,0.2111,0.2147,0.217,0.2221,0.225,0.2289,0.231,0.234,0.237,0.2419,0.2451,0.2478,0.2516,0.2561,0.2597,0.2608,0.2622,0.2618,0.2632,0.263,0.2631,0.2632,0.2625,0.262,0.262,0.2631,0.2631,0.2631]},{"header":{"parameterUnit":"m.s-1","parameterCategory":1,"la1":30.2991,"la2":30.254,"lo1":-89.0895,"lo2":-89.0444,"dy":0.0017,"dx":0.0017,"nx":28,"ny":28,"refTime":"2024-06-08T21:00:00:Z","depth":0,"parameterNumber":3,"parameterNumberName":"V-component_of_WINDS"},"data":[0,0,0,0,0,0,0,0,0,0,0,0,0,0,0,0,0,0,0,0,0,0,0,0,0,0,0,0,0,0,0,0,0,0,0,0,0,0,0,0,0,0,0,0,0,0,0,0,0,0,0,0,0,0,0,0,0,0,4.22,4.22,0,4.2225,4.2225,4.2225,4.2159,4.2157,4.2155,4.2153,4.2176,4.2179,4.2181,0,0,0,0,0,0,0,0,0,0,0,0,0,4.2091,4.2093,4.22,4.22,4.22,4.2225,4.2225,4.2225,4.216,4.2157,4.2155,4.2152,4.2175,4.2178,4.2181,0,0,0,0,0,0,0,0,0,0,0,0,0,4.2129,4.2094,4.22,4.217,4.2168,4.2225,4.2225,4.2225,4.216,4.2157,4.2154,4.2151,4.2174,4.2178,4.2182,4.2267,0,0,4.2193,4.2195,0,0,0,0,0,0,0,0,4.2127,4.2133,4.2174,4.2173,4.217,4.2186,4.2195,4.2239,4.2161,4.2163,4.2153,4.215,4.2182,4.2185,4.2196,4.2268,4.2269,4.2194,4.2196,4.2198,4.2199,0,0,0,0,0,0,0,4.2125,4.2132,4.2209,4.2175,4.2172,4.2155,4.2157,4.2203,4.2189,4.2163,4.2158,4.2162,4.218,4.2193,4.2196,4.2269,4.2194,4.2197,4.2199,4.2201,4.241,4.2413,0,0,0,0,0,0,4.2126,4.213,4.2209,4.221,4.2141,4.2159,4.2162,4.2184,4.2189,4.2186,4.2165,4.2159,4.2188,4.2192,4.2197,4.2295,4.2198,4.2201,4.2203,4.2407,4.2411,4.2414,0,0,0,0,0,0,4.2124,4.2134,4.2208,4.2169,4.2177,4.2165,4.219,4.2186,4.2199,4.219,4.2187,4.218,4.2185,4.2191,4.225,4.2295,4.2203,4.2206,4.2403,4.2408,4.2413,4.2494,0,0,0,0,0,0,4.2121,4.2134,4.2167,4.217,4.2179,4.2261,4.2193,4.2189,4.2206,4.2198,4.2204,4.2202,4.2183,4.2244,4.2253,4.2299,4.2209,4.2399,4.2405,4.2411,4.2487,4.2501,4.2513,0,0,0,0,0,4.2118,4.2188,4.2169,4.2178,4.2221,4.2264,4.2269,4.2247,4.221,4.2242,4.2236,4.2202,4.2289,4.2251,4.2261,4.2308,4.2396,4.2403,4.2411,4.2481,4.2498,4.2512,0,0,0,0,0,0,4.2189,4.2188,4.2166,4.224,4.2253,4.2253,4.2293,4.2266,4.2289,4.2281,4.2252,4.2254,4.2317,4.2318,4.2276,4.2389,4.2336,4.2345,4.2386,4.2402,4.2415,4.2412,4.2212,0,0,0,0,0,4.2214,4.2251,4.2247,4.2313,4.232,4.2306,4.2324,4.2306,4.2317,4.2322,4.2321,4.2333,4.2362,4.2382,4.2409,4.2487,4.2486,4.2524,4.2537,4.2548,4.2556,4.2595,4.2612,4.2439,4.2439,4.2439,0,0,4.2265,4.2268,4.2293,4.2327,4.2335,4.2372,4.2311,4.2353,4.238,4.2328,4.2383,4.2383,4.2394,4.2462,4.2491,4.2464,4.2604,4.2557,4.2566,4.2568,4.2605,4.2621,4.2636,4.2444,4.2443,4.2442,0,0,4.2376,4.2383,4.2438,4.2447,4.246,4.2449,4.2463,4.2467,4.2465,4.252,4.2481,4.2512,4.2565,4.2574,4.2585,4.27,4.2668,4.2709,4.2776,4.2815,4.2829,4.284,4.288,4.2894,4.2718,4.2718,4.2718,0,4.2437,4.2493,4.2469,4.2514,4.2529,4.2485,4.2539,4.2549,4.257,4.258,4.255,4.2614,4.2619,4.2688,4.2715,4.2727,4.274,4.2708,4.2829,4.284,4.2851,4.2888,4.2903,4.2723,4.2722,4.2722,4.2721,0,4.2566,4.2605,4.2648,4.2669,4.2689,4.2739,4.2722,4.2745,4.2725,4.2718,4.2773,4.2777,4.2804,4.2819,4.28,4.2885,4.2867,4.2834,4.2779,4.2873,4.2907,4.2921,4.273,4.2728,4.2726,4.2725,0,0,4.2723,4.2731,4.2746,4.2755,4.2766,4.2795,4.2842,4.2868,4.2888,4.2903,4.2941,4.2986,4.2955,4.2968,4.2949,4.2984,4.3072,4.2945,4.2945,4.2967,4.3164,4.3188,4.3205,4.3052,4.3055,4.3057,4.3163,0,4.2831,4.2912,4.2892,4.2972,4.3007,4.2965,4.3006,4.3016,4.3011,4.3039,4.3032,4.3064,4.3021,4.3028,4.3061,4.3055,4.3111,4.3047,4.3085,4.3087,4.3082,4.3223,4.325,4.3349,4.3176,4.3178,4.318,0,4.2968,4.299,4.3073,4.3077,4.3091,4.3128,4.315,4.3178,4.3188,4.3181,4.3196,4.3171,4.3215,4.3162,4.3222,4.3179,4.3194,4.3193,4.3196,4.3198,4.3138,4.3227,4.3381,4.3395,4.3201,4.3199,4.3198,0,4.3072,4.3122,4.3178,4.3187,4.3193,4.322,4.3223,4.3231,4.3248,4.3267,4.3277,4.3301,4.3314,4.3333,4.3314,4.3277,4.3377,4.3322,4.3372,4.3372,4.3393,4.3392,4.355,4.3405,4.3405,4.3405,4.3405,0,4.3194,4.3247,4.3224,4.3259,4.3315,4.3292,4.3348,4.3347,4.3354,4.3386,4.3352,4.3383,4.3357,4.3385,4.3371,4.3422,4.3429,4.3424,4.3419,4.3426,4.3427,4.3434,4.3426,4.3409,4.3408,4.3407,4.3407,0,4.3319,4.3307,4.3365,4.3366,4.3368,4.3409,4.341,4.3441,4.3433,4.3474,4.3483,4.347,4.3501,4.3485,4.3518,4.3508,4.3574,4.3561,4.3571,4.3567,4.3616,4.3611,4.3783,4.3804,4.3648,4.3649,4.3651,0,4.3397,4.3437,4.3442,4.3462,4.3468,4.35,4.3517,4.3495,4.3514,4.3529,4.3558,4.3586,4.3608,4.366,4.3653,4.3678,4.3664,4.3722,4.3667,4.3672,4.3663,4.366,4.3663,4.3733,4.3735,4.3736,4.3737,0,4.3537,4.3529,4.3555,4.358,4.3601,4.3619,4.3634,4.3652,4.363,4.3653,4.3685,4.3702,4.3735,4.3763,4.3785,4.3787,4.3758,4.3755,4.3767,4.3774,4.3778,4.3775,4.3599,4.3751,4.375,4.3749,4.3748,4.3747,4.364,4.3672,4.3681,4.3711,4.372,4.3735,4.3764,4.376,4.3787,4.3812,4.3797,4.3835,4.3843,4.3868,4.3874,4.3902,4.3879,4.3897,4.3902,4.3906,4.3912,4.3775,4.3906,4.3906,4.3906,4.3905,4.3905,0,4.3776,4.378,4.3808,4.383,4.3854,4.3826,4.3841,4.3862,4.3895,4.3906,4.3928,4.3964,4.3991,4.3987,4.4011,4.4035,4.4022,4.4042,4.4039,4.404,4.3933,4.3919,4.4051,4.4051,4.4051,4.4051,4.4051,4.4051,4.385,4.3903,4.3895,4.3952,4.3955,4.3992,4.4002,4.4015,4.4023,4.4065,4.4088,4.4085,4.4089,4.4114,4.4137,4.4135,4.4145,4.4169,4.4162,4.4062,4.4047,4.4034,4.402,4.4172,4.4172,4.4267,4.4268,4.4268]}]]